Home   Weather   Manchester   Past weeks

Flag for United Kingdom Past Weather in Manchester, England, United Kingdom — Yesterday and Last 2 Weeks

57 °F

Scattered clouds.

Feels Like: 55 °F
Forecast: 53 / 59 °F
Wind: 9 mph from Northwest

Location: Manchester Airport

Current Time: Oct 26, 2016 at 2:21:27 PM

Latest Report: Oct 26, 2016 at 1:50 PM

Visibility: N/A

Pressure: 30.27 "Hg

Humidity: 82%

Dew Point: 52 °F

Location of ManchesterLocation

Past Weather in Manchester — Graph


Manchester Temperature Yesterday

Maximum temperature yesterday: 55 °F (at 12:50 PM)
Minimum temperature yesterday: 39 °F (at 6:20 AM)
Average temperature yesterday: 48 °F

High & Low Weather Summary for the Past Weeks

High59 °F (Oct 12, 12:20 PM)100% (Oct 15, 3:50 AM)30.27 "Hg (Oct 15, 3:50 AM)
Low36 °F (Oct 23, 2:20 AM)59% (Oct 22, 2:50 PM)29.62 "Hg (Oct 15, 6:20 AM)
Average50 °F84%30.03 "Hg
* Reported Oct 11 1:20 PM — Oct 26 1:20 PM, Manchester, Weather by CustomWeather, © 2016

Note: Actual official high and low records may vary slightly from our data, if they occured in-between our weather recording intervals... More about our weather records


Manchester Weather History for the Previous 24 Hours

Scroll right to see more
Time TempWeatherWind HumidityBarometerVisibility
1:20 PM
Wed, Oct 26
57 °FScattered clouds.6 mph88%30.27 "HgN/A
12:50 PM57 °FScattered clouds.8 mph88%30.27 "HgN/A
12:20 PM57 °FPassing clouds.9 mph82%30.27 "HgN/A
11:50 AM55 °FPassing clouds.9 mph88%30.27 "HgN/A
11:20 AM55 °FScattered clouds.10 mph88%30.27 "HgN/A
10:50 AM55 °FScattered clouds.9 mph88%30.27 "HgN/A
10:20 AM54 °FPassing clouds.9 mph88%30.27 "HgN/A
9:50 AM54 °FScattered clouds.8 mph88%30.27 "HgN/A
9:20 AM52 °FPartly sunny.8 mph94%30.24 "Hg6 mi
8:50 AM52 °FPartly sunny.10 mph94%30.24 "HgN/A
8:20 AM52 °FBroken clouds.10 mph94%30.24 "HgN/A
7:50 AM52 °FPassing clouds.8 mph88%30.24 "HgN/A
7:20 AM52 °FPassing clouds.9 mph88%30.24 "Hg5 mi
6:50 AM52 °FPassing clouds.9 mph88%30.21 "Hg5 mi
6:20 AM50 °FPassing clouds.9 mph94%30.21 "HgN/A
5:50 AM52 °FPassing clouds.12 mph88%30.21 "HgN/A
5:20 AM52 °FPassing clouds.10 mph88%30.21 "HgN/A
4:50 AM52 °FPassing clouds.10 mph88%30.21 "HgN/A
4:20 AM50 °FPassing clouds.9 mph94%30.21 "Hg5 mi
3:50 AM50 °FPassing clouds.7 mph94%30.21 "Hg4 mi
3:20 AM50 °FPassing clouds.9 mph94%30.21 "Hg4 mi
2:50 AM50 °FPassing clouds.10 mph94%30.24 "Hg3 mi
2:20 AM48 °FPassing clouds.8 mph100%30.24 "Hg3 mi
1:50 AM48 °FClear.6 mph94%30.24 "Hg4 mi
1:20 AM50 °FClear.8 mph94%30.24 "Hg4 mi
12:50 AM50 °FClear.8 mph94%30.24 "Hg4 mi
12:20 AM50 °FPassing clouds.8 mph94%30.24 "Hg4 mi
11:50 PM
Tue, Oct 25
52 °FPassing clouds.8 mph88%30.24 "Hg5 mi
11:20 PM52 °FPassing clouds.9 mph88%30.24 "Hg4 mi
10:50 PM52 °FPassing clouds.7 mph88%30.24 "Hg5 mi
10:20 PM50 °FClear.6 mph94%30.24 "Hg5 mi
9:50 PM52 °FClear.7 mph88%30.24 "Hg5 mi
9:20 PM52 °FPassing clouds.8 mph88%30.24 "Hg5 mi
8:50 PM52 °FPassing clouds.8 mph88%30.24 "Hg5 mi
8:20 PM52 °FPassing clouds.7 mph88%30.24 "Hg5 mi
7:50 PM52 °FPassing clouds.7 mph88%30.24 "Hg5 mi
7:20 PM52 °FPassing clouds.6 mph88%30.24 "Hg5 mi
6:50 PM52 °FPassing clouds.3 mph88%30.24 "Hg6 mi
6:20 PM52 °FPassing clouds.3 mph82%30.21 "Hg4 mi
5:50 PM52 °FPassing clouds.5 mph82%30.21 "Hg4 mi
5:20 PM52 °FClear.5 mph82%30.21 "Hg5 mi
4:50 PM54 °FClear.7 mph77%30.21 "Hg6 mi
4:20 PM54 °FSunny.7 mph77%30.21 "Hg10 mi
3:50 PM54 °FSunny.8 mph72%30.21 "Hg10 mi
3:20 PM54 °FSunny.8 mph77%30.21 "Hg10 mi
2:50 PM54 °FPassing clouds.7 mph77%30.21 "HgN/A
2:20 PM54 °FPassing clouds.9 mph77%30.21 "HgN/A
Weather by CustomWeather, © 2016

See weather overviewHow to use our weather pages